User: anonymous   Login
Location: Pensacola
(30.4142°N, 87.2155°W)
Time: 17:20:26
(UTC-05:00)
Language:

METEOR M2 - Orbit

View from above orbital plane
View from above orbital plane
View from above satellite
View from above satellite

Ground track
Ground track

The orbit data is extracted from the following two-line orbital elements,

1 40069U 14037A   23157.42547846  .00000080  00000-0  56008-4 0  9993
2 40069  98.4232 163.9010 0006212  25.8212 334.3274 14.20781890462121
Epoch (UTC): 06 June 2023 10:12:41
Eccentricity: 0.0006212
inclination: 98.4232°
perigee height: 818 km
apogee height: 827 km
right ascension of ascending node: 163.9010°
argument of perigee: 25.8212°
revolutions per day: 14.20781890
mean anomaly at epoch: 334.3274°
orbit number at epoch: 46212

The dashed part of the orbit path shows where the satellite is in the earth's shadow,  

DLR